EW0482 Weather Reports


Display with metric or nautical units.
time (UTC)temp
F
wind
direction
speed
MPH
gust
MPH
rain 1hr
in
rain 24hr
in
rain mn
in
humidity
%
barometer
mb
20260503054516 59 253 0.0 3.0 0.00 0.00 0.00 12 1002.0
20260503053008 59 249 0.0 2.0 0.00 0.00 0.00 11 1002.1
20260503051508 60 250 0.0 1.0 0.00 0.00 0.00 11 1002.1
20260503050100 60 252 0.0 0.0 0.00 0.00 0.00 14 1002.1
20260503044608 60 252 0.0 1.0 0.00 0.00 0.00 16 1001.9
20260503043056 60 252 0.0 0.0 0.00 0.00 0.00 17 1001.8
20260503041547 60 252 0.0 0.0 0.00 0.00 0.00 19 1001.6
20260503040043 60 248 0.0 5.0 0.00 0.00 0.00 25 1001.2
20260503034538 60 257 0.0 3.0 0.00 0.00 0.00 26 1001.0
20260503033038 60 252 0.0 3.0 0.00 0.00 0.00 30 1000.7
20260503031530 60 254 0.0 2.0 0.00 0.00 0.00 33 1000.5
20260503030044 60 250 0.0 3.0 0.00 0.00 0.00 37 1000.3
20260503024529 60 258 0.0 3.0 0.00 0.00 0.00 43 1000.1
20260503023015 60 264 0.0 4.0 0.00 0.00 0.00 50 999.9
20260503021511 61 249 0.0 4.0 0.00 0.00 0.00 57 999.9
20260503020007 61 252 0.0 4.0 0.00 0.00 0.00 63 999.8
20260503014502 63 242 0.0 4.0 0.00 0.00 0.00 70 999.9
20260503013058 64 261 0.0 3.0 0.00 0.00 0.00 72 999.8
20260503011559 65 252 0.0 2.0 0.00 0.00 0.00 73 999.7
20260503010105 65 255 0.0 3.0 0.00 0.00 0.00 73 999.8
20260503004546 66 265 0.0 5.0 0.00 0.00 0.00 73 999.7
20260503003052 66 252 1.0 6.0 0.00 0.00 0.00 73 999.7
20260503001537 67 250 0.0 5.0 0.00 0.00 0.00 73 999.8
20260503000034 66 253 1.0 7.0 0.00 0.00 0.00 73 999.8
20260502234528 66 251 0.0 3.0 0.00 0.00 0.00 73 999.8
20260502233024 66 244 0.0 7.0 0.00 0.00 0.00 73 1000.0
20260502231519 66 236 0.0 2.0 0.00 0.00 0.00 73 1000.0
20260502230014 66 271 0.0 5.0 0.00 0.00 0.00 73 1000.3
20260502224510 65 210 1.0 9.0 0.00 0.00 0.00 72 1000.4
20260502223009 66 268 0.0 7.0 0.00 0.00 0.00 73 1001.0
20260502221501 66 242 1.0 9.0 0.00 0.00 0.00 72 1001.3
20260502220058 66 239 0.0 7.0 0.00 0.00 0.00 72 1001.5
20260502214557 66 250 2.0 9.0 0.00 0.00 0.00 72 1001.7
20260502213048 67 236 0.0 7.0 0.00 0.00 0.00 73 1001.9
20260502211549 69 236 0.0 7.0 0.00 0.00 0.00 72 1002.0
20260502210040 69 227 0.0 7.0 0.00 0.00 0.00 72 1002.1
20260502204536 69 231 0.0 5.0 0.00 0.00 0.00 72 1002.2
20260502203032 69 222 0.0 1.0 0.00 0.00 0.00 72 1002.2
20260502201531 69 240 0.0 2.0 0.00 0.00 0.00 72 1002.4
20260502200023 68 156 0.0 1.0 0.00 0.00 0.00 70 1002.4
20260502194518 67 260 0.0 5.0 0.00 0.00 0.00 69 1002.7
20260502193014 66 244 0.0 4.0 0.00 0.00 0.00 67 1002.8
20260502191509 66 250 1.0 6.0 0.00 0.00 0.00 67 1003.0
20260502190009 66 242 0.0 1.0 0.00 0.00 0.00 64 1003.4
20260502184604 65 242 0.0 3.0 0.00 0.00 0.00 63 1003.5
20260502183058 64 227 0.0 1.0 0.00 0.00 0.00 52 1003.6
20260502181607 63 230 0.0 1.0 0.00 0.00 0.00 46 1003.6
20260502163020 60 238 0.0 1.0 0.00 0.00 0.00 100 1004.2
20260502161515 60 242 0.0 0.0 0.00 0.00 0.00 100 1004.3
20260502151606 59 244 0.0 1.0 0.00 0.00 0.00 100 1003.9
20260502123010 58 257 0.0 1.0 0.00 0.00 0.00 100 1003.0
20260502121509 59 259 0.0 3.0 0.00 0.00 0.00 100 1002.8
20260502114559 59 252 0.0 1.0 0.00 0.00 0.00 100 1002.7
20260502113053 59 250 0.0 1.0 0.00 0.00 0.00 100 1002.5
20260502111548 59 249 0.0 1.0 0.00 0.00 0.00 100 1002.5
20260502110045 58 249 0.0 1.0 0.00 0.00 0.00 100 1002.5
20260502104541 58 249 0.0 1.0 0.00 0.00 0.00 100 1002.4
20260502103036 58 249 0.0 0.0 0.00 0.00 0.00 3 1002.2
20260502101537 58 249 0.0 0.0 0.00 0.00 0.00 6 1002.3
20260502091519 57 248 0.0 0.0 0.00 0.00 0.00 22 1002.4
20260502071502 58 250 0.0 0.0 0.00 0.00 0.00 41 1003.3
20260502064603 58 250 0.0 0.0 0.00 0.00 0.00 50 1003.2